[[{"header":{"parameterUnit":"m.s-1","parameterCategory":1,"la1":30.2991,"la2":30.254,"lo1":-89.0895,"lo2":-89.0444,"dy":0.0017,"dx":0.0017,"nx":28,"ny":28,"refTime":"2025-03-05T09:00:00:Z","depth":0,"parameterNumber":2,"parameterNumberName":"U-component_of_WINDS"},"data":[0,0,0,0,0,0,0,0,0,0,0,0,0,0,0,0,0,0,0,0,0,0,0,0,0,0,0,0,0,0,0,0,0,0,0,0,0,0,0,0,0,0,0,0,0,0,0,0,0,0,0,0,0,0,0,0,0,0,1.3239,1.324,0,1.3277,1.3277,1.3278,1.3285,1.3285,1.3285,1.3285,1.3322,1.3323,1.3324,0,0,0,0,0,0,0,0,0,0,0,0,0,1.3175,1.3176,1.3239,1.324,1.324,1.3277,1.3277,1.3278,1.3285,1.3285,1.3285,1.3284,1.3321,1.3323,1.3324,0,0,0,0,0,0,0,0,0,0,0,0,0,1.3206,1.3176,1.3239,1.3249,1.325,1.3277,1.3277,1.3278,1.3285,1.3285,1.3285,1.3284,1.3321,1.3323,1.3325,1.3345,0,0,1.333,1.3331,0,0,0,0,0,0,0,0,1.3205,1.3209,1.3247,1.3248,1.3249,1.3276,1.3268,1.33,1.3286,1.3272,1.3285,1.3284,1.3307,1.331,1.3318,1.3346,1.3348,1.3331,1.3332,1.3333,1.3333,0,0,0,0,0,0,0,1.3202,1.3207,1.3254,1.3247,1.3249,1.3251,1.3255,1.3274,1.3291,1.3273,1.3274,1.3278,1.3308,1.3316,1.3319,1.3349,1.3331,1.3332,1.3333,1.3334,1.3397,1.3397,0,0,0,0,0,0,1.3199,1.3205,1.3253,1.3255,1.3226,1.3252,1.3257,1.3268,1.3291,1.3294,1.3278,1.3278,1.3313,1.3317,1.332,1.3345,1.3333,1.3334,1.3335,1.3396,1.3397,1.3397,0,0,0,0,0,0,1.3197,1.3203,1.3251,1.3231,1.3237,1.3254,1.3266,1.3269,1.3277,1.3295,1.3298,1.3284,1.3313,1.3317,1.3339,1.3347,1.3335,1.3337,1.3395,1.3396,1.3397,1.3396,0,0,0,0,0,0,1.3195,1.3202,1.321,1.3231,1.3238,1.3269,1.3267,1.327,1.3281,1.3281,1.3301,1.3304,1.3313,1.3336,1.3341,1.3349,1.3338,1.3395,1.3396,1.3397,1.3395,1.3397,1.3398,0,0,0,0,0,1.3193,1.3208,1.321,1.3216,1.3248,1.327,1.3274,1.3284,1.3281,1.3289,1.3301,1.3303,1.3345,1.3338,1.3343,1.3353,1.3394,1.3395,1.3397,1.3395,1.3396,1.3398,0,0,0,0,0,0,1.3186,1.321,1.3213,1.3235,1.3251,1.3271,1.3281,1.3285,1.3301,1.3301,1.3313,1.3317,1.3338,1.3348,1.3339,1.3374,1.337,1.3372,1.3366,1.3368,1.3369,1.3366,1.334,0,0,0,0,0,1.3188,1.3204,1.3224,1.3241,1.3249,1.3264,1.3274,1.328,1.3296,1.3303,1.3316,1.3331,1.3348,1.3359,1.3375,1.3397,1.3402,1.3406,1.3408,1.3409,1.341,1.3423,1.3426,1.3401,1.3401,1.3401,0,0,1.319,1.3205,1.3214,1.324,1.3253,1.3269,1.3269,1.3286,1.3298,1.3305,1.3326,1.3337,1.3355,1.3377,1.3387,1.3385,1.3418,1.341,1.3411,1.3412,1.3425,1.3427,1.3429,1.3402,1.3402,1.3402,0,0,1.3203,1.3216,1.3232,1.3245,1.3265,1.3275,1.3279,1.3299,1.3306,1.3328,1.3334,1.3349,1.3377,1.339,1.34,1.342,1.3423,1.3425,1.3431,1.3444,1.3446,1.3447,1.3454,1.3457,1.3427,1.3427,1.3427,0,1.3203,1.3228,1.324,1.3257,1.3268,1.3276,1.3293,1.3305,1.3329,1.3336,1.3335,1.3371,1.3384,1.3409,1.3414,1.3422,1.3428,1.3422,1.3444,1.3446,1.3448,1.3455,1.3458,1.3427,1.3427,1.3427,1.3427,0,1.3228,1.3245,1.3256,1.3279,1.3292,1.3309,1.3323,1.3335,1.3341,1.3352,1.3374,1.339,1.341,1.3417,1.3422,1.3443,1.3442,1.3442,1.3438,1.345,1.3457,1.346,1.3427,1.3427,1.3427,1.3427,0,0,1.3236,1.3267,1.3271,1.3282,1.3305,1.3318,1.3336,1.3356,1.3366,1.3383,1.3398,1.3423,1.3423,1.3435,1.3443,1.3454,1.3469,1.3453,1.3454,1.3455,1.3493,1.3493,1.3495,1.3472,1.3472,1.3473,1.3492,0,1.3251,1.3283,1.3295,1.3321,1.3337,1.3346,1.3362,1.3378,1.3388,1.3404,1.3416,1.3433,1.3433,1.344,1.3452,1.3464,1.3477,1.3463,1.3486,1.3486,1.348,1.3499,1.3498,1.3515,1.3495,1.3495,1.3495,0,1.3273,1.3291,1.3318,1.334,1.3348,1.3361,1.3381,1.3396,1.3415,1.3422,1.3436,1.3443,1.3462,1.3458,1.3485,1.3476,1.3486,1.3494,1.3495,1.3496,1.3491,1.3501,1.3521,1.3523,1.35,1.3499,1.3499,0,1.3276,1.3307,1.3328,1.3337,1.3363,1.3372,1.3384,1.3402,1.3414,1.3432,1.3439,1.3459,1.347,1.3485,1.3497,1.3493,1.3523,1.352,1.353,1.3529,1.3535,1.3534,1.3556,1.3542,1.3542,1.3542,1.3542,0,1.3291,1.3308,1.3329,1.3342,1.3361,1.3375,1.3394,1.3406,1.3422,1.3438,1.3447,1.3461,1.3477,1.3494,1.3504,1.3525,1.3529,1.3536,1.3538,1.3534,1.3534,1.3541,1.354,1.3543,1.3543,1.3543,1.3542,0,1.3298,1.3313,1.3336,1.3359,1.3366,1.3379,1.3399,1.3412,1.3424,1.3443,1.3448,1.3467,1.3487,1.3501,1.3527,1.3534,1.3556,1.3559,1.355,1.3551,1.356,1.3559,1.3587,1.3592,1.3575,1.3575,1.3575,0,1.3306,1.3319,1.3344,1.3356,1.3367,1.3385,1.3397,1.3412,1.3425,1.3448,1.3458,1.3479,1.3496,1.3528,1.3544,1.3564,1.3567,1.3575,1.357,1.3566,1.3567,1.3565,1.3567,1.3576,1.3576,1.3576,1.3576,0,1.332,1.3327,1.3344,1.3365,1.338,1.3397,1.3414,1.3423,1.3441,1.3454,1.3475,1.3489,1.3516,1.3537,1.3559,1.357,1.3576,1.3578,1.3581,1.3577,1.3572,1.3575,1.3552,1.3577,1.3577,1.3577,1.3577,1.3577,1.3327,1.334,1.3359,1.3379,1.3394,1.341,1.3424,1.3438,1.3456,1.3479,1.3487,1.3508,1.3528,1.3558,1.357,1.3588,1.3587,1.3592,1.3593,1.3594,1.3594,1.357,1.3592,1.3592,1.3592,1.3592,1.3592,0,1.3341,1.3355,1.3373,1.3397,1.3413,1.3418,1.3437,1.345,1.3469,1.3487,1.3505,1.3529,1.355,1.3568,1.3589,1.36,1.3603,1.3605,1.3604,1.3607,1.3593,1.3588,1.3602,1.3602,1.3602,1.3602,1.3602,1.3602,1.335,1.3371,1.3381,1.341,1.3424,1.3446,1.3457,1.3472,1.3486,1.3513,1.3531,1.3543,1.3561,1.3584,1.3603,1.3608,1.3616,1.3617,1.3622,1.3609,1.3608,1.3606,1.3602,1.3618,1.3618,1.3634,1.3635,1.3635]},{"header":{"parameterUnit":"m.s-1","parameterCategory":1,"la1":30.2991,"la2":30.254,"lo1":-89.0895,"lo2":-89.0444,"dy":0.0017,"dx":0.0017,"nx":28,"ny":28,"refTime":"2025-03-05T09:00:00:Z","depth":0,"parameterNumber":3,"parameterNumberName":"V-component_of_WINDS"},"data":[0,0,0,0,0,0,0,0,0,0,0,0,0,0,0,0,0,0,0,0,0,0,0,0,0,0,0,0,0,0,0,0,0,0,0,0,0,0,0,0,0,0,0,0,0,0,0,0,0,0,0,0,0,0,0,0,0,0,-5.5284,-5.5286,0,-5.5406,-5.5407,-5.5409,-5.5402,-5.54,-5.5398,-5.5397,-5.5516,-5.5521,-5.5525,0,0,0,0,0,0,0,0,0,0,0,0,0,-5.5043,-5.5048,-5.5284,-5.5286,-5.5287,-5.5406,-5.5407,-5.5409,-5.5402,-5.54,-5.5398,-5.5396,-5.5514,-5.552,-5.5526,0,0,0,0,0,0,0,0,0,0,0,0,0,-5.5154,-5.5049,-5.5284,-5.5298,-5.5301,-5.5405,-5.5407,-5.5409,-5.5403,-5.54,-5.5397,-5.5395,-5.5513,-5.552,-5.5527,-5.5623,0,0,-5.5549,-5.5552,0,0,0,0,0,0,0,0,-5.5148,-5.5163,-5.5295,-5.5298,-5.5301,-5.5386,-5.5366,-5.5481,-5.5403,-5.5364,-5.5397,-5.5394,-5.5475,-5.5485,-5.5513,-5.5629,-5.5634,-5.5549,-5.5554,-5.5557,-5.5559,0,0,0,0,0,0,0,-5.5141,-5.5158,-5.5332,-5.5297,-5.53,-5.5298,-5.5311,-5.5388,-5.5432,-5.5367,-5.5367,-5.5382,-5.5476,-5.5506,-5.5516,-5.5636,-5.5549,-5.5555,-5.556,-5.5563,-5.5839,-5.5842,0,0,0,0,0,0,-5.513,-5.5152,-5.5328,-5.5336,-5.5217,-5.5304,-5.5319,-5.5361,-5.5431,-5.544,-5.5384,-5.5381,-5.5495,-5.5507,-5.552,-5.5639,-5.5557,-5.5563,-5.5568,-5.5836,-5.5839,-5.5843,0,0,0,0,0,0,-5.5125,-5.5146,-5.5323,-5.5244,-5.5266,-5.5311,-5.5359,-5.5365,-5.5396,-5.5444,-5.5451,-5.5407,-5.5494,-5.551,-5.5598,-5.5643,-5.5567,-5.5573,-5.5832,-5.5837,-5.5841,-5.5878,0,0,0,0,0,0,-5.5118,-5.5144,-5.5182,-5.5245,-5.5271,-5.5401,-5.5362,-5.5369,-5.5409,-5.5406,-5.5468,-5.5476,-5.5493,-5.5588,-5.5606,-5.5652,-5.5579,-5.5828,-5.5834,-5.584,-5.5873,-5.5883,-5.5892,0,0,0,0,0,-5.511,-5.5186,-5.5184,-5.5205,-5.5319,-5.5404,-5.5418,-5.5438,-5.5412,-5.545,-5.5482,-5.5474,-5.5635,-5.5597,-5.5617,-5.5666,-5.5826,-5.5833,-5.5839,-5.5868,-5.5881,-5.5891,0,0,0,0,0,0,-5.5125,-5.5194,-5.5193,-5.5292,-5.5342,-5.5402,-5.5451,-5.545,-5.5507,-5.5502,-5.5523,-5.5537,-5.5626,-5.5655,-5.561,-5.5764,-5.5727,-5.5738,-5.5742,-5.5755,-5.5764,-5.5755,-5.5585,0,0,0,0,0,-5.514,-5.5204,-5.5261,-5.5343,-5.5368,-5.5406,-5.5443,-5.5454,-5.5506,-5.5527,-5.5565,-5.5614,-5.5677,-5.5717,-5.5777,-5.5877,-5.5891,-5.592,-5.593,-5.5937,-5.5947,-5.6004,-5.6018,-5.5865,-5.5865,-5.5865,0,0,-5.5171,-5.5217,-5.5256,-5.5347,-5.5387,-5.5453,-5.5423,-5.5493,-5.5542,-5.5537,-5.5624,-5.5654,-5.571,-5.5806,-5.5849,-5.5832,-5.5992,-5.5946,-5.5952,-5.5957,-5.6012,-5.6027,-5.6039,-5.587,-5.5869,-5.5868,0,0,-5.5262,-5.5303,-5.5377,-5.5419,-5.5481,-5.5506,-5.5524,-5.5585,-5.5605,-5.5693,-5.5692,-5.5749,-5.5855,-5.5897,-5.5931,-5.6041,-5.6036,-5.606,-5.6109,-5.6164,-5.6176,-5.6187,-5.6228,-5.6242,-5.6069,-5.6069,-5.6069,0,-5.5293,-5.5393,-5.5415,-5.5487,-5.5527,-5.5528,-5.5603,-5.5642,-5.572,-5.5747,-5.5727,-5.5863,-5.59,-5.6007,-5.6034,-5.6061,-5.6082,-5.6053,-5.6173,-5.6184,-5.6195,-5.6233,-5.6248,-5.6071,-5.6071,-5.6071,-5.6071,0,-5.5429,-5.5498,-5.555,-5.5628,-5.5674,-5.5747,-5.5779,-5.5823,-5.5831,-5.5857,-5.5948,-5.5994,-5.6064,-5.609,-5.6096,-5.6197,-5.6185,-5.6169,-5.6132,-5.6212,-5.6248,-5.6263,-5.6075,-5.6074,-5.6073,-5.6073,0,0,-5.5531,-5.5623,-5.5642,-5.5678,-5.5748,-5.5802,-5.5874,-5.5946,-5.5983,-5.6037,-5.6099,-5.6191,-5.6177,-5.6217,-5.6228,-5.6277,-5.6362,-5.6255,-5.6256,-5.6274,-5.6478,-5.6491,-5.6507,-5.636,-5.6362,-5.6365,-5.6474,0,-5.5631,-5.5763,-5.5785,-5.59,-5.5965,-5.5968,-5.6032,-5.6081,-5.6109,-5.6167,-5.6196,-5.6261,-5.6237,-5.6262,-5.631,-5.6342,-5.6404,-5.6334,-5.6417,-5.642,-5.6404,-5.6526,-5.654,-5.664,-5.6488,-5.649,-5.6492,0,-5.5764,-5.5825,-5.5947,-5.6011,-5.6039,-5.6096,-5.6164,-5.6219,-5.6276,-5.6292,-5.6338,-5.6345,-5.642,-5.638,-5.6485,-5.6437,-5.6472,-5.6493,-5.6498,-5.6507,-5.6461,-5.654,-5.6672,-5.6688,-5.6515,-5.6513,-5.6511,0,-5.5829,-5.5941,-5.6029,-5.606,-5.6135,-5.6176,-5.6209,-5.6263,-5.6305,-5.6364,-5.6391,-5.6457,-5.6493,-5.6544,-5.6568,-5.6537,-5.6672,-5.6633,-5.6688,-5.6687,-5.6716,-5.6714,-5.6858,-5.6737,-5.6737,-5.6737,-5.6736,0,-5.5938,-5.6013,-5.606,-5.6114,-5.6198,-5.6223,-5.6306,-5.6337,-5.6386,-5.6446,-5.6451,-5.6507,-5.6536,-5.6596,-5.6615,-5.67,-5.6716,-5.6731,-5.6735,-5.6731,-5.673,-5.6755,-5.6749,-5.6741,-5.674,-5.6739,-5.6738,0,-5.6025,-5.6059,-5.6156,-5.6221,-5.6239,-5.6298,-5.6353,-5.6406,-5.6433,-5.651,-5.6529,-5.6571,-5.6643,-5.6672,-5.6759,-5.6772,-5.687,-5.6868,-5.6852,-5.6853,-5.6906,-5.6902,-5.7072,-5.7096,-5.6959,-5.696,-5.6961,0,-5.6092,-5.6151,-5.6223,-5.6265,-5.63,-5.6367,-5.6411,-5.6438,-5.6483,-5.6553,-5.6597,-5.6669,-5.6729,-5.6842,-5.688,-5.6947,-5.6948,-5.7003,-5.6958,-5.6953,-5.695,-5.6947,-5.6954,-5.7011,-5.7013,-5.7014,-5.7015,0,-5.621,-5.6225,-5.6289,-5.6359,-5.6412,-5.6468,-5.6523,-5.6557,-5.6592,-5.6642,-5.6717,-5.6763,-5.6854,-5.6925,-5.6995,-5.7027,-5.7028,-5.7029,-5.7045,-5.7042,-5.7031,-5.7039,-5.6876,-5.7025,-5.7024,-5.7023,-5.7023,-5.7022,-5.629,-5.6343,-5.6403,-5.6475,-5.652,-5.6571,-5.6625,-5.6661,-5.6724,-5.6801,-5.6812,-5.6893,-5.6948,-5.7042,-5.7078,-5.7141,-5.7126,-5.715,-5.7156,-5.7161,-5.7166,-5.7021,-5.7153,-5.7153,-5.7153,-5.7152,-5.7152,0,-5.6409,-5.6449,-5.6515,-5.6593,-5.6649,-5.6646,-5.6707,-5.6754,-5.6826,-5.6879,-5.6938,-5.7024,-5.7094,-5.7139,-5.721,-5.7251,-5.7253,-5.7269,-5.7266,-5.7274,-5.7174,-5.7153,-5.7266,-5.7266,-5.7266,-5.7266,-5.7266,-5.7266,-5.6478,-5.6568,-5.6591,-5.6703,-5.6741,-5.6822,-5.6857,-5.6905,-5.6948,-5.7045,-5.7104,-5.7134,-5.7184,-5.7258,-5.7323,-5.7334,-5.736,-5.7377,-5.7387,-5.7293,-5.7281,-5.727,-5.7251,-5.7382,-5.7382,-5.7483,-5.7484,-5.7485]}]]